Fayetteville, NC

5:14 AM EDT on May 23, 2017 (GMT -0400)
Fayetteville Regional-Grannis

Weather History for KFAY - July, 2014

Change the Weather History Date:

Monday, July 21, 2014

  Actual Average Record
Temperature  
Mean Temperature 75 °F 82 °F  
Max Temperature 78 °F 91 °F 105 °F (1932)
Min Temperature 72 °F 72 °F 61 °F (1978)
Degree Days  
Heating Degree Days 0 0  
Month to date heating degree days 0 0  
Since 1 June heating degree days 0 0  
Since 1 July heating degree days 0 0  
Cooling Degree Days 10 17  
Month to date cooling degree days 322 346  
Year to date cooling degree days 1145 1026  
Since 1 June cooling degree days 779 742  
Growing Degree Days 26 (Base 50)    
Moisture  
Dew Point 72 °F    
Average Humidity 94    
Maximum Humidity 100    
Minimum Humidity 87    
Precipitation  
Precipitation 0.30 in 0.22 in 2.93 in (1939)
Month to date precipitation 1.78 3.90  
Year to date precipitation 22.92 23.92  
Sea Level Pressure  
Sea Level Pressure 30.10 in    
Wind  
Wind Speed 5 mph (East)    
Max Wind Speed 14 mph    
Max Gust Speed 17 mph    
Visibility 7 miles    
Events Rain , Thunderstorm    
T = Trace of Precipitation, MM = Missing Value Source: NWS Daily Summary

Daily Weather History Graph

Daily Weather History Graph

Search for Another Location

Airport or City:

Trip Planner

Search our weather history database for the weather conditions in past years. The results will help you decide how hot, cold, wet, or windy it might be!

Date:

Astronomy

Jul. 21, 2014 Rise Set
Actual Time 6:16 AM EDT 8:26 PM EDT
Civil Twilight 5:48 AM EDT 8:55 PM EDT
Nautical Twilight 5:13 AM EDT 9:29 PM EDT
Astronomical Twilight 4:35 AM EDT 10:07 PM EDT
Moon 2:03 AM EDT (7/21) 4:09 PM EDT (7/21)
Length of Visible Light 15h 06m
Length of Day
14h 09m
Waning Crescent, 24% of the Moon is Illuminated
Jul 21
Waning Crescent
Jul 26
New
Aug 3
First Quarter
Aug 10
Full
Aug 17
Last Quarter

Hourly Weather History & Observations

Time (EDT) Temp. Dew Point Humidity Pressure Visibility Wind Dir Wind Speed Gust Speed Precip Events Conditions
12:53 AM 75.0 °F 73.0 °F 94% 30.07 in 8.0 mi ESE 4.6 mph - N/A   Clear
1:53 AM 75.0 °F 73.0 °F 94% 30.06 in 8.0 mi SE 3.5 mph - N/A   Mostly Cloudy
2:53 AM 73.9 °F 73.0 °F 97% 30.05 in 7.0 mi Calm Calm - N/A   Partly Cloudy
3:53 AM 73.9 °F 72.0 °F 93% 30.03 in 5.0 mi ESE 3.5 mph - N/A   Clear
4:12 AM 73.9 °F 72.0 °F 93% 30.04 in 4.0 mi East 3.5 mph - N/A   Partly Cloudy
4:53 AM 73.9 °F 72.0 °F 93% 30.03 in 5.0 mi ESE 6.9 mph - N/A   Clear
5:53 AM 73.9 °F 72.0 °F 93% 30.06 in 5.0 mi ESE 3.5 mph - 0.00 in   Partly Cloudy
6:53 AM 73.9 °F 72.0 °F 93% 30.07 in 3.0 mi NE 3.5 mph - N/A   Overcast
7:53 AM 73.9 °F 73.0 °F 97% 30.08 in 3.0 mi Calm Calm - N/A   Partly Cloudy
8:53 AM 77.0 °F 73.9 °F 90% 30.10 in 7.0 mi East 4.6 mph - N/A   Clear
8:59 AM 77.0 °F 73.9 °F 90% 30.12 in 8.0 mi East 3.5 mph - N/A Thunderstorm Scattered Clouds
9:31 AM 78.1 °F 73.9 °F 87% 30.11 in 9.0 mi Variable 3.5 mph - N/A Thunderstorm Overcast
9:49 AM 75.2 °F 73.4 °F 94% 30.11 in 6.0 mi WNW 3.5 mph - 0.06 in Rain , Thunderstorm Light Thunderstorms and Rain
9:53 AM 75.9 °F 73.9 °F 94% 30.09 in 5.0 mi NNW 3.5 mph - 0.06 in Rain , Thunderstorm Light Thunderstorms and Rain
10:53 AM 75.0 °F 73.0 °F 94% 30.11 in 8.0 mi East 8.1 mph - 0.03 in Rain , Thunderstorm Light Thunderstorms and Rain
11:13 AM 73.0 °F 71.1 °F 93% 30.12 in 2.5 mi East 12.7 mph - 0.06 in Rain , Thunderstorm Rain
11:20 AM 73.0 °F 71.1 °F 93% 30.12 in 4.0 mi East 10.4 mph - 0.07 in Rain , Thunderstorm Light Rain
11:46 AM 73.9 °F 72.0 °F 93% 30.11 in 9.0 mi East 8.1 mph - 0.07 in   Mostly Cloudy
11:53 AM 73.9 °F 72.0 °F 93% 30.09 in 9.0 mi East 9.2 mph - 0.07 in   Mostly Cloudy
12:53 PM 75.0 °F 72.0 °F 90% 30.11 in 10.0 mi ENE 3.5 mph - N/A   Scattered Clouds
1:29 PM 75.9 °F 72.0 °F 87% 30.14 in 10.0 mi Calm Calm - N/A   Mostly Cloudy
1:53 PM 75.9 °F 73.0 °F 91% 30.12 in 10.0 mi East 5.8 mph - N/A   Overcast
2:17 PM 75.9 °F 73.0 °F 91% 30.14 in 10.0 mi SE 6.9 mph - N/A Thunderstorm Overcast
2:25 PM 75.9 °F 73.0 °F 91% 30.13 in 10.0 mi SE 5.8 mph - 0.00 in Rain , Thunderstorm Light Rain
2:34 PM 75.9 °F 73.0 °F 91% 30.13 in 9.0 mi ESE 6.9 mph - 0.01 in Rain , Thunderstorm Light Rain
2:41 PM 75.9 °F 73.0 °F 91% 30.13 in 8.0 mi ESE 4.6 mph - 0.02 in Rain Light Rain
2:53 PM 75.9 °F 73.0 °F 91% 30.11 in 9.0 mi ESE 6.9 mph - 0.02 in Rain Light Rain
3:53 PM 75.0 °F 72.0 °F 90% 30.11 in 10.0 mi SSE 6.9 mph - 0.02 in Rain Light Rain
4:53 PM 73.9 °F 72.0 °F 93% 30.09 in 9.0 mi SSE 8.1 mph - 0.02 in Rain Light Rain
5:09 PM 73.9 °F 72.0 °F 93% 30.11 in 7.0 mi SSE 8.1 mph - 0.02 in Rain Light Rain
5:53 PM 73.9 °F 72.0 °F 93% 30.09 in 10.0 mi ESE 6.9 mph - 0.05 in Rain Light Rain
6:53 PM 73.9 °F 72.0 °F 93% 30.10 in 8.0 mi NE 5.8 mph - 0.02 in Rain Light Rain
7:53 PM 73.9 °F 72.0 °F 93% 30.09 in 10.0 mi ENE 3.5 mph - 0.01 in   Overcast
8:31 PM 73.0 °F 72.0 °F 96% 30.12 in 10.0 mi Calm Calm - N/A   Scattered Clouds
8:53 PM 73.0 °F 71.1 °F 93% 30.10 in 10.0 mi Calm Calm - N/A   Clear
9:53 PM 73.0 °F 71.1 °F 93% 30.12 in 6.0 mi NNE 3.5 mph - N/A   Overcast
10:53 PM 73.0 °F 71.1 °F 93% 30.13 in 6.0 mi NE 4.6 mph - N/A   Overcast
11:53 PM 73.0 °F 71.1 °F 93% 30.12 in 5.0 mi NNE 5.8 mph - N/A   Mostly Cloudy